AirNav   Air Wisconsin Up To $57,000 Bonus
 
 1406 users online  

8B1 Hawthorne-Feather Airpark
Hillsboro, New Hampshire, USA

GOING TO HILLSBORO?


FAA INFORMATION EFFECTIVE 02 JANUARY 2020

Location

FAA Identifier: 8B1
Lat/Long: 43-03-40.6000N 071-54-19.3000W
43-03.676667N 071-54.321667W
43.0612778,-71.9053611
(estimated)
Elevation: 600 ft. / 183 m (estimated)
Variation: 16W (1985)
From city: 3 miles S of HILLSBORO, NH
Time zone: UTC -5 (UTC -4 during Daylight Saving Time)
Zip code: 03244

Airport Operations

Airport use: Open to the public
Activation date: 02/1966
Control tower: no
ARTCC: BOSTON CENTER
FSS: BANGOR FLIGHT SERVICE STATION
NOTAMs facility: BGR (NOTAM-D service available)
Attendance: UNATNDD
Wind indicator: yes
Segmented circle: no
Lights: OTS INDEFLY.
Beacon: white-green (lighted land airport)
OTS INDEFLY.

Airport Communications

CTAF/UNICOM: 122.8
WX ASOS at AFN (16 nm S): 135.875 (603-532-6195)
WX AWOS-3PT at EEN (19 nm SW): 119.025 (603-358-6424)
WX ASOS at CON (20 nm NE): 132.325 (603-224-6558)

Nearby radio navigation aids

VOR radial/distance  VOR name  Freq  Var
CONr252/17.3CONCORD VOR/DME112.9015W
EENr061/23.3KEENE VORTAC109.4014W
MHTr311/26.2MANCHESTER VOR/DME114.4015W
GDMr026/31.6GARDNER VOR/DME110.6014W
LEBr175/39.5LEBANON VOR/DME113.7015W

 
NDB name  Hdg/Dist  Freq  Var  ID
CLAREMONT148/27.523316WCNH -.-. -. ....

Airport Services

Fuel available: 100LL
SELF SERV FUEL AVBL 24 HRS BY CREDIT CARD SYS.
Parking: tiedowns
Bottled oxygen: NONE
Bulk oxygen: NONE

Runway Information

Runway 2/20

Dimensions: 3260 x 75 ft. / 994 x 23 m
Surface: asphalt, in fair condition
RWY SFC UNEVEN WITH LRG OPEN CRACKS.
Weight bearing capacity: 
Single wheel: 8.0
Runway edge lights: medium intensity
MIRL RWY 02/20 OTS INDEFLY.
Runway edge markings: MARKINGS FADED.
RUNWAY 2  RUNWAY 20
Latitude: 43-03.407730N43-03.944378N
Longitude: 071-54.312915W071-54.329765W
Elevation: 593.0 ft.599.0 ft.
Traffic pattern: leftright
Runway heading: 015 magnetic, 359 true195 magnetic, 179 true
Markings: none, in poor conditionnone
Obstructions: 57 ft. trees, 265 ft. from runway, 124 ft. left of centerline, 1:1 slope to clear
50 FT GROVE OF TREES AT THR 65 FT LEFT, 30 FT TREE 130 FT FM THR 85 FT RIGHT.
60 ft. trees, 343 ft. from runway, 125 ft. right of centerline, 2:1 slope to clear
RWY 20 HAS +60 TREES AT THR 90 FT RIGHT.

Airport Ownership and Management from official FAA records

Ownership: Privately-owned
Owner: JAMES T. RYMES
2 MAIN ST
ANTRIM, NH 03440
Phone 603-588-6868
Manager: ROGER SMITH
2 MAIN ST
ANTRIM, NH 03440
Phone 603-588-6868

Airport Operational Statistics

Aircraft based on the field: 16
Single engine airplanes: 15
Ultralights: 1
    
Aircraft operations: avg 72/week *
43% transient general aviation
43% local general aviation
15% military
* for 12-month period ending 31 December 2016

Additional Remarks

PRIOR TO USING ARPT CALL 603-588-6868 FOR ARPT CONDS.
WILDLIFE ON & INVOF ARPT.
FOR CD CTC BOSTON APCH AT 603-594-5551.

Instrument Procedures

There are no published instrument procedures at 8B1.

Some nearby airports with instrument procedures:

KAFN - Jaffrey Airport-Silver Ranch (16 nm S)
KEEN - Dillant-Hopkins Airport (19 nm SW)
KCON - Concord Municipal Airport (20 nm NE)
KMHT - Manchester Airport (22 nm E)
2B3 - Parlin Field Airport (23 nm NW)
 
Loc | Ops | Rwys | IFR | FBO | Links
Com | Nav | Svcs | Stats | Notes
Area around 8B1 (Hawthorne-Feather Airpark)
 
Road maps at: MapQuest Bing Google
 
Aerial photo
WARNING: Photo may not be current or correct
Aerial photo of 8B1 (Hawthorne-Feather Airpark)
Photo by David Jablonski
Photo taken 09-Apr-2006

Do you have a better or more recent aerial photo of Hawthorne-Feather Airpark that you would like to share? If so, please send us your photo.

 
Sectional chart

 
Airport distance calculator
Flying to Hawthorne-Feather Airpark? Find the distance to fly.

From to 8B1

Sunrise and sunset
Times for 29-Jan-2020
 Local
(UTC-5)
 Zulu
(UTC)
Morning civil twilight06:3711:37
Sunrise07:0712:07
Sunset16:5521:55
Evening civil twilight17:2522:25

Current date and time
Zulu (UTC)  29-Jan-2020 16:04:20
Local (UTC-5)  29-Jan-2020 11:04:20
 
METAR
KAFN 
16nm S 
291552Z AUTO 10SM CLR M01/M13 A2999 RMK AO2 SLP174 T10111128
KEEN 
19nm SW 
291556Z AUTO 35009KT 10SM CLR M01/M11 A3004 RMK AO2 SNB1457E08 SLP184 P0000 T10061111 FZRANO $
KCON 
20nm NE 
291551Z AUTO 30010KT 10SM CLR 00/M14 A3002 RMK AO2 SLP169 T00001139
KMHT 
22nm E 
291553Z 32009KT 10SM CLR 01/M14 A3001 RMK AO2 SLP180 T00061144
KASH 
25nm SE 
291556Z 36009KT 10SM CLR 01/M13 A3003 RMK AO2 SLP175 T00061128
KFIT 
31nm S 
291552Z AUTO 35009KT 10SM CLR 02/M12 A3002 RMK AO2 SLP171 T00171122
KVSF 
32nm NW 
291554Z AUTO 25005KT 10SM CLR M02/M11 A3005 RMK AO2 SLP186 T10171111
TAF
KCON 
20nm NE 
291120Z 2912/3012 33007KT P6SM FEW030
KMHT 
22nm E 
291120Z 2912/3012 34006KT P6SM FEW030
NOTAMs
Click for the latest NOTAMs
NOTAMs are issued by the DoD/FAA and will open in a separate window not controlled by AirNav.

 

 
 

FBO, Fuel Providers, and Aircraft Ground Support

  
 Business Name 
 
 Contact 
 
 Services / Description 
 
Fuel Prices
 
Comments
  
Rymes Oil 603-588-6868
no information available

If you are affiliated with Rymes Oil and would like to show here your services, contact info, web link, logo, and more, click here
100LL
SS $4.51 
 Updated 03-Jan-2020
 
   3 read write
SS=Self service
Update Fuel Prices
 

Would you like to see your business listed on this page?

 If your business provides an interesting product or service to pilots, flight crews, aircraft, or users of the Hawthorne-Feather Airpark, you should consider listing it here.  To start the listing process, click on the button below
 
Add a business
 

Other Pages about Hawthorne-Feather Airpark

Update a link
 
Copyright © AirNav, LLC. All rights reserved. Privacy Policy  Contact